Weather History for Richmond, KY

Change the Weather History Date:

Wednesday, March 14, 2012

  Actual Average (KLOZ) Record (KLOZ)
Temperature  
Mean Temperature 64 °F 47 °F  
Max Temperature 77 °F 58 °F 83 °F (1973)
Min Temperature 50 °F 36 °F -1 °F (1960)
Degree Days  
Heating Degree Days 2 18  
Month to date heating degree days 281  
Since 1 July heating degree days 3557  
Cooling Degree Days 0 0  
Month to date cooling degree days 0  
Year to date cooling degree days 0  
Growing Degree Days 14 (Base 50)    
Moisture  
Dew Point 50 °F    
Average Humidity 60    
Maximum Humidity 88    
Minimum Humidity 34    
Precipitation  
Precipitation 0.00 in 0.13 in 1.31 in (1964)
Month to date precipitation 1.83  
Year to date precipitation 9.08  
Sea Level Pressure  
Sea Level Pressure 30.18 in    
Wind  
Wind Speed 4 mph (SSW)    
Max Wind Speed 10 mph    
Max Gust Speed 17 mph    
Visibility 10 miles    
Events      
T = Trace of Precipitation, MM = Missing Value Source: NWS Daily Summary

Daily Weather History Graph

Daily Weather History Graph

Search for Another Location

Airport:

Trip Planner

Search our weather history database for the weather conditions in past years. The results will help you decide how hot, cold, wet, or windy it might be!

Date:

Astronomy

Mar. 14, 2012 Rise Set
Actual Time 7:49 AM EDT 7:44 PM EDT
Civil Twilight 7:23 AM EDT 8:10 PM EDT
Nautical Twilight 6:52 AM EDT 8:40 PM EDT
Astronomical Twilight 6:22 AM EDT 9:11 PM EDT
Moon 2:10 AM EDT (3/14) 12:06 PM EDT (3/14)
Length of Visible Light 12h 47m
Length of Day
11h 54m
Waning Gibbous, 54% of the Moon is Illuminated
Mar 14
Waning Gibbous
Mar 14
Last Quarter
Mar 22
New
Mar 30
First Quarter
Apr 6
Full

Hourly Weather History & Observations

Time (EDT) Temp. Dew Point Humidity Pressure Visibility Wind Dir Wind Speed Gust Speed Precip Events Conditions
12:15 AM 62.6 °F 51.8 °F 68% 30.17 in 10.0 mi Calm Calm - N/A   Clear
12:35 AM 60.8 °F 50.0 °F 68% 30.17 in 10.0 mi South 6.9 mph - N/A   Clear
12:55 AM 57.2 °F 50.0 °F 77% 30.17 in 10.0 mi SSE 5.8 mph - N/A   Clear
1:15 AM 59.0 °F 50.0 °F 72% 30.17 in 10.0 mi South 5.8 mph - N/A   Clear
1:35 AM 57.2 °F 50.0 °F 77% 30.17 in 10.0 mi SSE 5.8 mph - N/A   Clear
1:55 AM 57.2 °F 50.0 °F 77% 30.16 in 10.0 mi SSE 5.8 mph - N/A   Clear
2:15 AM 55.4 °F 50.0 °F 82% 30.16 in 10.0 mi SSE 5.8 mph - N/A   Scattered Clouds
2:35 AM 55.4 °F 50.0 °F 82% 30.16 in 10.0 mi South 5.8 mph - N/A   Scattered Clouds
2:55 AM 53.6 °F 50.0 °F 88% 30.16 in 10.0 mi South 4.6 mph - N/A   Clear
3:15 AM 55.4 °F 48.2 °F 77% 30.16 in 10.0 mi South 3.5 mph - N/A   Clear
3:35 AM 55.4 °F 50.0 °F 82% 30.16 in 10.0 mi Calm Calm - N/A   Mostly Cloudy
3:55 AM 55.4 °F 50.0 °F 82% 30.16 in 10.0 mi Calm Calm - N/A   Mostly Cloudy
4:15 AM 53.6 °F 48.2 °F 82% 30.15 in 10.0 mi Calm Calm - N/A   Scattered Clouds
4:55 AM 53.6 °F 48.2 °F 82% 30.15 in 10.0 mi Calm Calm - N/A   Clear
5:35 AM 53.6 °F 48.2 °F 82% 30.15 in 10.0 mi Calm Calm - N/A   Clear
5:55 AM 51.8 °F 48.2 °F 88% 30.16 in 10.0 mi SSE 3.5 mph - N/A   Clear
6:15 AM 53.6 °F 48.2 °F 82% 30.17 in 10.0 mi Calm Calm - N/A   Clear
6:35 AM 51.8 °F 48.2 °F 88% 30.17 in 10.0 mi Calm Calm - N/A   Scattered Clouds
6:55 AM 53.6 °F 48.2 °F 82% 30.18 in 10.0 mi South 4.6 mph - N/A   Scattered Clouds
7:15 AM 50.0 °F 46.4 °F 87% 30.19 in 10.0 mi Calm Calm - N/A   Scattered Clouds
7:55 AM 53.6 °F 48.2 °F 82% 30.20 in 10.0 mi South 4.6 mph - N/A   Scattered Clouds
8:15 AM 53.6 °F 50.0 °F 88% 30.20 in 10.0 mi South 5.8 mph - N/A   Scattered Clouds
8:35 AM 53.6 °F 48.2 °F 82% 30.21 in 10.0 mi Calm Calm - N/A   Scattered Clouds
8:55 AM 55.4 °F 50.0 °F 82% 30.22 in 10.0 mi SSE 3.5 mph - N/A   Clear
9:15 AM 59.0 °F 51.8 °F 77% 30.23 in 10.0 mi South 3.5 mph - N/A   Clear
9:35 AM 60.8 °F 51.8 °F 72% 30.23 in 10.0 mi South 6.9 mph - N/A   Scattered Clouds
10:15 AM 64.4 °F 53.6 °F 68% 30.24 in 10.0 mi South 4.6 mph - N/A   Scattered Clouds
10:35 AM 66.2 °F 53.6 °F 64% 30.24 in 10.0 mi SSE 5.8 mph - N/A   Clear
10:55 AM 68.0 °F 53.6 °F 60% 30.24 in 10.0 mi SW 4.6 mph - N/A   Clear
11:15 AM 68.0 °F 55.4 °F 64% 30.25 in 10.0 mi SW 5.8 mph - N/A   Clear
11:35 AM 69.8 °F 55.4 °F 60% 30.24 in 10.0 mi SW 3.5 mph - N/A   Clear
11:55 AM 71.6 °F 55.4 °F 57% 30.24 in 10.0 mi SW 6.9 mph - N/A   Clear
12:15 PM 73.4 °F 55.4 °F 53% 30.24 in 10.0 mi SW 8.1 mph - N/A   Clear
12:35 PM 73.4 °F 55.4 °F 53% 30.24 in 10.0 mi SW 6.9 mph - N/A   Clear
12:55 PM 75.2 °F 55.4 °F 50% 30.24 in 10.0 mi West 9.2 mph - N/A   Scattered Clouds
1:15 PM 75.2 °F 51.8 °F 44% 30.23 in 10.0 mi West 9.2 mph - N/A   Scattered Clouds
1:35 PM 75.2 °F 53.6 °F 47% 30.23 in 10.0 mi SW 6.9 mph - N/A   Scattered Clouds
1:55 PM 75.2 °F 53.6 °F 47% 30.22 in 10.0 mi SW 6.9 mph - N/A   Clear
2:15 PM 77.0 °F 51.8 °F 41% 30.21 in 10.0 mi Calm Calm - N/A   Clear
2:35 PM 77.0 °F 51.8 °F 41% 30.20 in 10.0 mi WSW 9.2 mph - N/A   Scattered Clouds
2:55 PM 77.0 °F 50.0 °F 39% 30.19 in 10.0 mi West 9.2 mph - N/A   Clear
3:15 PM 77.0 °F 50.0 °F 39% 30.18 in 10.0 mi WSW 6.9 mph - N/A   Clear
3:35 PM 77.0 °F 48.2 °F 36% 30.17 in 10.0 mi WSW 5.8 mph - N/A   Scattered Clouds
3:55 PM 77.0 °F 48.2 °F 36% 30.17 in 10.0 mi SW 10.4 mph - N/A   Clear
4:15 PM 77.0 °F 50.0 °F 39% 30.16 in 10.0 mi SW 9.2 mph - N/A   Clear
4:55 PM 77.0 °F 46.4 °F 34% 30.16 in 10.0 mi WSW 8.1 mph - N/A   Clear
5:15 PM 77.0 °F 48.2 °F 36% 30.15 in 10.0 mi SW 9.2 mph 17.3 mph N/A   Clear
5:35 PM 77.0 °F 48.2 °F 36% 30.15 in 10.0 mi WSW 9.2 mph - N/A   Clear
5:55 PM 77.0 °F 48.2 °F 36% 30.15 in 10.0 mi WSW 9.2 mph - N/A   Clear
6:15 PM 77.0 °F 46.4 °F 34% 30.15 in 10.0 mi SW 9.2 mph - N/A   Clear
6:35 PM 77.0 °F 48.2 °F 36% 30.15 in 10.0 mi SW 5.8 mph - N/A   Clear
7:15 PM 75.2 °F 48.2 °F 38% 30.15 in 10.0 mi SW 5.8 mph - N/A   Clear
7:35 PM 73.4 °F 46.4 °F 38% 30.15 in 7.0 mi SSW 4.6 mph - N/A   Clear
7:55 PM 71.6 °F 46.4 °F 41% 30.15 in 7.0 mi SSW 5.8 mph - N/A   Clear
8:15 PM 71.6 °F 46.4 °F 41% 30.16 in 10.0 mi SSW 5.8 mph - N/A   Clear
8:55 PM 71.6 °F 46.4 °F 41% 30.16 in 10.0 mi South 5.8 mph - N/A   Clear
9:15 PM 69.8 °F 46.4 °F 43% 30.16 in 10.0 mi South 5.8 mph - N/A   Clear
9:35 PM 69.8 °F 46.4 °F 43% 30.16 in 10.0 mi South 5.8 mph - N/A   Clear
9:55 PM 69.8 °F 46.4 °F 43% 30.18 in 10.0 mi South 6.9 mph - N/A   Clear
10:15 PM 68.0 °F 48.2 °F 49% 30.18 in 10.0 mi South 4.6 mph - N/A   Clear
10:35 PM 68.0 °F 48.2 °F 49% 30.19 in 10.0 mi SSW 4.6 mph - N/A   Clear
10:55 PM 68.0 °F 46.4 °F 46% 30.19 in 10.0 mi South 5.8 mph - N/A   Clear
11:15 PM 64.4 °F 48.2 °F 56% 30.18 in 10.0 mi South 4.6 mph - N/A   Clear
11:35 PM 68.0 °F 46.4 °F 46% 30.18 in 10.0 mi South 5.8 mph - N/A   Clear
11:55 PM 68.0 °F 46.4 °F 46% 30.17 in 10.0 mi South 4.6 mph - N/A   Clear